Regional Weather Roundup
Issued by NWS

Home | Current Version | Previous Version | Text Only | Print | Product List | Glossary On
Versions: 1 2 3 4 5 6 7 8 9 10 11 12 13 14 15 16 17 18 19 20 21 22 23 24 25 26 27 28 29 30 31 32 33 34 35 36 37 38 39 40 41 42 43 44 45 46 47 48 49 50
000
ASUS43 KTOP 271608
RWRKS

WEATHER ROUNDUP FOR KANSAS
NATIONAL WEATHER SERVICE GOODLAND KS
1100 AM CDT WED MAY 27 2015

NOTE:  "FAIR" INDICATES FEW OR NO CLOUDS BELOW 12,000 FEET WITH NO
SIGNIFICANT WEATHER AND/OR OBSTRUCTIONS TO VISIBILITY.

KSZ001>006-013>018-027>032-041>047-271700-
NORTHWEST KANSAS

CITY           SKY/WX    TMP DP  RH WIND       PRES   REMARKS
GOODLAND       PTSUNNY   65  56  72 S17       30.08F
HAYS           PTSUNNY   72  55  56 E10       30.09S
HILL CITY      CLOUDY    69  54  58 SE8       30.09S
RUSSELL        PTSUNNY   73  56  54 SE10      30.08R
$$

KSZ061>065-074>080-084>089-271700-
SOUTHWEST KANSAS

CITY           SKY/WX    TMP DP  RH WIND       PRES   REMARKS
DODGE CITY     CLOUDY    73  60  63 SE5       30.08S
ELKHART          N/A     75  57  53 S13         N/A
GARDEN CITY    PTSUNNY   72  60  66 S8        30.08S
GREAT BEND     CLOUDY    70  55  60 SE12G17   30.09S
LIBERAL        SUNNY     77  63  61 S12       30.08F
PRATT          PTSUNNY   72  59  64 SE9       30.10S
$$

KSZ066>073-081>083-090>101-271700-
SOUTHEAST KANSAS

CITY           SKY/WX    TMP DP  RH WIND       PRES   REMARKS
CHANUTE        MOSUNNY   75  58  55 E8        30.10S
COFFEYVILLE    SUNNY     77  63  61 VRB3      30.09R
HUTCHINSON     MOSUNNY   76  56  49 SE12      30.09R
MEDICINE LODGE   N/A     73  62  68 VRB6      30.07F
NEWTON           N/A    N/A N/A N/A MISG        N/A
PARSONS        MOSUNNY   77  66  68 VRB5      30.11R
WICHITA INTL   PTSUNNY   72  63  73 SE10      30.09R
WICHITA JABRA  PTSUNNY   73  62  68 SE9       30.10R
WICHITA MCCONL PTSUNNY   72  64  74 SE8       30.10R
WINFIELD       PTSUNNY   75  65  70 VRB7      30.10S
$$

KSZ007>012-019>026-033>040-048>060-102>105-271700-
NORTHEAST KANSAS

CITY           SKY/WX    TMP DP  RH WIND       PRES   REMARKS
CONCORDIA      SUNNY     73  51  46 E6        30.09S
EMPORIA        MOSUNNY   74  55  51 E12       30.09R
LAWRENCE       SUNNY     75  59  57 S5        30.10R
MANHATTAN      SUNNY     74  55  51 E6        30.08S
MARYSVILLE     SUNNY     73  54  49 W3        30.09S
OLATHE IND     SUNNY     75  55  49 E6        30.10F
OLATHE EXE     SUNNY     76  54  46 N6        30.09S
SALINA         MOSUNNY   75  54  47 E9        30.09R
TOPEKA BILLARD SUNNY     76  54  46 CALM      30.09R
TOPEKA FORBES  SUNNY     76  53  44 NE5       30.09S
$$


USA.gov is the U.S. government's official web portal to all federal, state and local government web resources and services.